Riverton, WY

3:28 AM MST on January 22, 2017 (GMT -0700)
Thermopolis

Weather History for KTBX - April, 2013

Change the Weather History Date:

Monday, April 8, 2013

  Actual Average (KRIW) Record (KRIW)
Temperature  
Mean Temperature 26 °F -  
Max Temperature 37 °F 55 °F 72 °F (1996)
Min Temperature 14 °F 23 °F 16 °F (2013)
Degree Days  
Heating Degree Days 39    
Moisture  
Dew Point 21 °F    
Average Humidity 88    
Maximum Humidity 100    
Minimum Humidity 52    
Precipitation  
Precipitation 0.00 in - - ()
Sea Level Pressure  
Sea Level Pressure 29.79 in    
Wind  
Wind Speed 28 mph (NW)    
Max Wind Speed 46 mph    
Max Gust Speed 51 mph    
Visibility 8 miles    
Events Fog , Snow    
Averages and records for this station are not official NWS values.
T = Trace of Precipitation, MM = Missing Value Source: NWS Daily Summary

Daily Weather History Graph

Daily Weather History Graph

Search for Another Location

Airport or City:

Trip Planner

Search our weather history database for the weather conditions in past years. The results will help you decide how hot, cold, wet, or windy it might be!

Date:

Astronomy

Apr. 08, 2013 Rise Set
Actual Time 6:41 AM MDT 7:48 PM MDT
Civil Twilight 6:12 AM MDT 8:17 PM MDT
Nautical Twilight 5:37 AM MDT 8:52 PM MDT
Astronomical Twilight 5:00 AM MDT 9:29 PM MDT
Moon 5:36 AM MDT (4/8) 6:24 PM MDT (4/8)
Length of Visible Light 14h 05m
Length of Day
13h 06m
Waning Crescent, 3% of the Moon is Illuminated
Apr 8
Waning Crescent
Apr 10
New
Apr 18
First Quarter
Apr 25
Full
May 2
Last Quarter

Hourly Weather History & Observations

Time (MDT) Temp. Windchill Dew Point Humidity Pressure Visibility Wind Dir Wind Speed Gust Speed Precip Events Conditions
12:15 AM 35.6 °F 26.6 °F 19.4 °F 52% 29.73 in 10.0 mi WSW 13.8 mph - N/A   Overcast
12:35 AM 37.4 °F 28.9 °F 21.2 °F 52% 29.73 in 10.0 mi SW 13.8 mph 18.4 mph N/A   Overcast
12:55 AM 35.6 °F 26.6 °F 21.2 °F 56% 29.73 in 10.0 mi SW 13.8 mph - N/A   Mostly Cloudy
1:35 AM 35.6 °F 24.8 °F 19.4 °F 52% 29.72 in 10.0 mi SSW 19.6 mph - N/A   Mostly Cloudy
1:55 AM 35.6 °F 25.9 °F 19.4 °F 52% 29.73 in 10.0 mi SW 16.1 mph 23.0 mph N/A   Scattered Clouds
2:15 AM 33.8 °F 25.8 °F 19.4 °F 56% 29.73 in 10.0 mi WSW 10.4 mph - N/A   Clear
2:35 AM 32.0 °F 24.2 °F 24.8 °F 75% 29.73 in 10.0 mi NNW 9.2 mph - N/A   Clear
2:55 AM 32.0 °F 21.6 °F 28.4 °F 87% 29.71 in 10.0 mi North 15.0 mph - N/A   Clear
3:15 AM 32.0 °F 20.5 °F 28.4 °F 87% 29.71 in 10.0 mi North 18.4 mph - N/A   Clear
3:35 AM 32.0 °F 19.5 °F 28.4 °F 87% 29.70 in 10.0 mi NNW 21.9 mph - N/A   Clear
3:55 AM 30.2 °F 16.5 °F 30.2 °F 100% 29.70 in 10.0 mi NNW 24.2 mph - N/A   Clear
4:15 AM 30.2 °F 15.4 °F 30.2 °F 100% 29.68 in 0.2 mi NNW 28.8 mph - N/A Fog Light Freezing Fog
4:35 AM 30.2 °F 14.7 °F 30.2 °F 100% 29.67 in 0.2 mi NNW 32.2 mph 40.3 mph N/A Snow Light Snow
4:55 AM 30.2 °F 16.8 °F 30.2 °F 100% 29.72 in 0.2 mi NNW 23.0 mph - N/A Snow Light Snow
5:15 AM 30.2 °F 15.4 °F 30.2 °F 100% 29.71 in - NNW 28.8 mph - N/A   Overcast
5:35 AM 30.2 °F 15.7 °F 30.2 °F 100% 29.72 in - NNW 27.6 mph - N/A   Overcast
5:55 AM 30.2 °F 15.9 °F 30.2 °F 100% 29.72 in - NNW 26.5 mph - N/A   Overcast
6:35 AM 30.2 °F 14.9 °F 30.2 °F 100% 29.72 in - NNW 31.1 mph 36.8 mph N/A   Overcast
6:55 AM 26.6 °F 10.6 °F 24.8 °F 93% 29.73 in - NW 28.8 mph - N/A   Overcast
7:15 AM 24.8 °F 8.7 °F 23.0 °F 93% 29.73 in - NW 26.5 mph - N/A   Overcast
7:35 AM 24.8 °F 8.7 °F 23.0 °F 93% 29.75 in - NW 26.5 mph - N/A   Overcast
7:55 AM 23.0 °F 5.7 °F 23.0 °F 100% 29.74 in - NW 28.8 mph - N/A   Overcast
8:15 AM 23.0 °F 5.7 °F 23.0 °F 100% 29.75 in - NW 28.8 mph - N/A   Overcast
8:35 AM 23.0 °F 5.4 °F 21.2 °F 93% 29.75 in - NW 29.9 mph - N/A   Overcast
8:55 AM 23.0 °F 4.9 °F 21.2 °F 93% 29.75 in - NW 32.2 mph - N/A   Overcast
9:15 AM 21.2 °F 2.4 °F 21.2 °F 100% 29.76 in - NW 32.2 mph - N/A   Overcast
9:35 AM 21.2 °F 2.2 °F 19.4 °F 93% 29.75 in - NW 33.4 mph - N/A   Overcast
9:55 AM 21.2 °F 1.4 °F 19.4 °F 93% 29.75 in - NW 36.8 mph - N/A   Overcast
10:15 AM 21.2 °F 1.7 °F 19.4 °F 93% 29.76 in - NW 35.7 mph 39.1 mph N/A   Overcast
10:35 AM 21.2 °F 1.2 °F 19.4 °F 93% 29.75 in - NW 38.0 mph - N/A   Overcast
10:55 AM 21.2 °F 1.4 °F 19.4 °F 93% 29.75 in - NW 36.8 mph - N/A   Overcast
11:15 AM 21.2 °F 1.4 °F 19.4 °F 93% 29.76 in - NW 36.8 mph - N/A   Overcast
11:35 AM 21.2 °F 0.9 °F 19.4 °F 93% 29.75 in - NW 39.1 mph - N/A   Overcast
11:55 AM 19.4 °F -1.6 °F 17.6 °F 93% 29.76 in - NW 39.1 mph - N/A   Overcast
12:15 PM 19.4 °F -2.0 °F 17.6 °F 93% 29.75 in - WNW 41.4 mph - N/A   Overcast
12:35 PM 19.4 °F -2.0 °F 17.6 °F 93% 29.75 in - NW 41.4 mph - N/A   Overcast
12:55 PM 19.4 °F -2.7 °F 17.6 °F 93% 29.75 in - NW 44.9 mph 50.6 mph N/A   Overcast
1:15 PM 17.6 °F -4.7 °F 15.8 °F 93% 29.77 in - NW 42.6 mph - N/A   Overcast
1:35 PM 17.6 °F -4.7 °F 15.8 °F 93% 29.78 in - NW 42.6 mph - N/A   Overcast
1:55 PM 17.6 °F -4.7 °F 15.8 °F 93% 29.78 in - WNW 42.6 mph 46.0 mph N/A   Overcast
2:15 PM 17.6 °F -4.5 °F 14.0 °F 86% 29.78 in - NW 41.4 mph - N/A   Overcast
2:35 PM 17.6 °F -4.5 °F 15.8 °F 93% 29.77 in - NW 41.4 mph - N/A   Overcast
2:55 PM 17.6 °F -5.0 °F 14.0 °F 86% 29.78 in - NW 43.7 mph 48.3 mph N/A   Overcast
3:15 PM 17.6 °F -4.5 °F 14.0 °F 86% 29.79 in - NW 41.4 mph - N/A   Overcast
3:35 PM 15.8 °F -7.3 °F 14.0 °F 93% 29.79 in - NW 42.6 mph - N/A   Overcast
3:55 PM 15.8 °F -7.0 °F 14.0 °F 93% 29.80 in - NW 41.4 mph - N/A   Overcast
4:15 PM 14.0 °F -9.1 °F 12.2 °F 93% 29.81 in - NW 39.1 mph - N/A   Overcast
4:35 PM - - - N/A% 29.82 in - NW 40.3 mph - N/A   Overcast
4:55 PM - - - N/A% 29.83 in - NW 36.8 mph - N/A   Overcast
5:15 PM - - - N/A% 29.84 in - NW 39.1 mph - N/A   Overcast
5:35 PM - - - N/A% 29.85 in - NW 39.1 mph - N/A   Overcast
5:55 PM - - - N/A% 29.85 in - NW 39.1 mph - N/A   Overcast
6:15 PM - - - N/A% 29.86 in - NW 38.0 mph - N/A   Overcast
6:35 PM - - - N/A% 29.86 in - NW 40.3 mph - N/A   Overcast
6:55 PM - - - N/A% 29.87 in - NW 38.0 mph - N/A   Overcast
7:15 PM - - - N/A% 29.87 in - NW 42.6 mph - N/A   Overcast
7:35 PM - - - N/A% 29.89 in - NW 42.6 mph - N/A   Overcast
7:55 PM - - - N/A% 29.88 in - WNW 46.0 mph - N/A   Overcast
8:15 PM - - - N/A% 29.90 in - NW 42.6 mph - N/A   Overcast
8:35 PM - - - N/A% 29.90 in - NW 43.7 mph - N/A   Overcast
8:55 PM - - - N/A% 29.91 in - NW 43.7 mph - N/A   Overcast
9:15 PM - - - N/A% 29.91 in - NW 40.3 mph - N/A   Overcast
9:35 PM - - - N/A% 29.91 in - NW 43.7 mph 47.2 mph N/A   Overcast
9:55 PM - - - N/A% 29.92 in - NW 44.9 mph - N/A   Overcast
10:15 PM - - - N/A% 29.91 in - WNW 42.6 mph 47.2 mph N/A   Overcast
10:35 PM - - - N/A% 29.92 in - WNW 43.7 mph - N/A   Overcast
10:55 PM - - - N/A% 29.92 in - WNW 43.7 mph - N/A   Overcast
11:35 PM - - - N/A% 29.93 in - WNW 43.7 mph - N/A   Overcast
11:55 PM - - - N/A% 29.95 in - WNW 41.4 mph - N/A   Overcast